Weather History for Ravenna, OH

Change the Weather History Date:

Wednesday, June 12, 2013

  Actual Average (KCAK) Record (KCAK)
Temperature  
Mean Temperature 70 °F 67 °F  
Max Temperature 77 °F 77 °F 91 °F (1961)
Min Temperature 62 °F 57 °F 40 °F (1906)
Degree Days  
Heating Degree Days 0 2  
Month to date heating degree days 33  
Since 1 June heating degree days 33  
Since 1 July heating degree days 6134  
Cooling Degree Days 4 4  
Month to date cooling degree days 37  
Year to date cooling degree days 79  
Since 1 June cooling degree days 37  
Growing Degree Days 20 (Base 50)    
Moisture  
Dew Point 65 °F    
Average Humidity 83    
Maximum Humidity 100    
Minimum Humidity 51    
Precipitation  
Precipitation 0.00 in 0.12 in 1.50 in (1960)
Month to date precipitation 1.53  
Year to date precipitation 17.26  
Snow  
Snow 0.00 in 0.00 in - ()
Month to date snowfall 0.0  
Since 1 June snowfall 0.0  
Since 1 July snowfall 47.5  
Snow Depth -    
Sea Level Pressure  
Sea Level Pressure 29.87 in    
Wind  
Wind Speed 2 mph (WSW)    
Max Wind Speed 9 mph    
Max Gust Speed -    
Visibility 9 miles    
Events      
T = Trace of Precipitation, MM = Missing Value Source: NWS Daily Summary

Daily Weather History Graph

Daily Weather History Graph

Search for Another Location

Airport:

Trip Planner

Search our weather history database for the weather conditions in past years. The results will help you decide how hot, cold, wet, or windy it might be!

Date:

Astronomy

Jun. 12, 2013 Rise Set
Actual Time 5:51 AM EDT 8:58 PM EDT
Civil Twilight 5:17 AM EDT 9:32 PM EDT
Nautical Twilight 4:34 AM EDT 10:15 PM EDT
Astronomical Twilight 3:43 AM EDT 11:06 PM EDT
Moon 9:31 AM EDT (6/12) 11:31 PM EDT (6/12)
Length of Visible Light 16h 14m
Length of Day
15h 06m
Waxing Crescent, 14% of the Moon is Illuminated
Jun 12
Waxing Crescent
Jun 16
First Quarter
Jun 23
Full
Jun 30
Last Quarter
Jul 8
New

Hourly Weather History & Observations

Time (EDT) Temp. Dew Point Humidity Pressure Visibility Wind Dir Wind Speed Gust Speed Precip Events Conditions
12:14 AM 64.6 °F 64.8 °F 100% 29.90 in 10.0 mi Calm Calm - N/A   Mostly Cloudy
12:34 AM - - N/A% 29.89 in 7.0 mi Calm Calm - N/A   Mostly Cloudy
12:53 AM 63.7 °F 63.9 °F 100% 29.89 in 7.0 mi Calm Calm - N/A   Scattered Clouds
1:14 AM 63.5 °F 63.7 °F 100% 29.89 in 10.0 mi Calm Calm - N/A   Clear
1:33 AM 62.8 °F 63.0 °F 100% 29.89 in 7.0 mi Calm Calm - N/A   Scattered Clouds
1:54 AM - - N/A% 29.88 in 7.0 mi Calm Calm - N/A   Scattered Clouds
2:14 AM 63.0 °F 63.1 °F 100% 29.88 in 10.0 mi Calm Calm - N/A   Clear
2:33 AM 62.8 °F 63.0 °F 100% 29.88 in 7.0 mi Calm Calm - N/A   Scattered Clouds
2:54 AM 62.6 °F 62.8 °F 100% 29.88 in 7.0 mi Calm Calm - N/A   Scattered Clouds
3:14 AM 62.2 °F 62.4 °F 100% 29.87 in 5.0 mi SW 3.5 mph - N/A   Scattered Clouds
3:33 AM 63.0 °F 63.1 °F 100% 29.87 in 7.0 mi WSW 3.5 mph - N/A   Scattered Clouds
3:54 AM 64.8 °F 64.9 °F 100% 29.87 in 7.0 mi Calm Calm - N/A   Scattered Clouds
4:14 AM - - N/A% 29.87 in 7.0 mi West 4.6 mph - N/A   Clear
4:33 AM 64.4 °F 64.6 °F 100% 29.87 in 7.0 mi West 3.5 mph - N/A   Clear
4:54 AM 63.9 °F 64.0 °F 100% 29.87 in 5.0 mi Calm Calm - N/A   Clear
5:13 AM 63.5 °F 63.7 °F 100% 29.87 in 7.0 mi WSW 3.5 mph - N/A   Clear
5:34 AM 63.5 °F 63.7 °F 100% 29.88 in 5.0 mi Calm Calm - N/A   Clear
5:54 AM 63.5 °F 63.5 °F 100% 29.89 in 5.0 mi West 3.5 mph - N/A   Scattered Clouds
6:14 AM 63.7 °F 63.9 °F 100% 29.90 in 5.0 mi Calm Calm - N/A   Clear
6:34 AM 64.2 °F 64.2 °F 100% 29.92 in 5.0 mi West 3.5 mph - N/A   Clear
6:53 AM 64.4 °F 64.6 °F 100% 29.92 in 5.0 mi West 4.6 mph - N/A   Scattered Clouds
7:14 AM 65.3 °F 65.5 °F 100% 29.92 in 5.0 mi West 4.6 mph - N/A   Scattered Clouds
7:33 AM 66.2 °F 66.4 °F 100% 29.92 in 7.0 mi West 4.6 mph - N/A   Clear
7:54 AM 67.3 °F 67.1 °F 99% 29.92 in 7.0 mi West 4.6 mph - N/A   Clear
8:14 AM 67.8 °F 67.1 °F 98% 29.92 in 7.0 mi West 4.6 mph - N/A   Clear
8:34 AM 68.9 °F 65.1 °F 88% 29.92 in 7.0 mi WSW 5.8 mph - N/A   Clear
8:53 AM 69.8 °F 64.6 °F 83% 29.92 in 7.0 mi West 4.6 mph - N/A   Clear
9:14 AM 70.0 °F 64.6 °F 83% 29.92 in 10.0 mi WSW 4.6 mph - N/A   Clear
9:34 AM 71.6 °F 64.4 °F 78% 29.92 in 10.0 mi WSW 5.8 mph - N/A   Clear
9:53 AM 73.2 °F 64.2 °F 73% 29.92 in 10.0 mi West 3.5 mph - N/A   Clear
10:14 AM 73.8 °F 63.9 °F 71% 29.91 in 10.0 mi WNW 3.5 mph - N/A   Clear
10:34 AM 75.2 °F 61.7 °F 63% 29.92 in 10.0 mi West 5.8 mph - N/A   Clear
10:53 AM 76.3 °F 61.9 °F 61% 29.93 in 10.0 mi WNW 5.8 mph - N/A   Clear
11:14 AM 76.1 °F 63.1 °F 64% 29.94 in 10.0 mi WNW 4.6 mph - N/A   Scattered Clouds
11:33 AM 76.3 °F 61.7 °F 60% 29.93 in 10.0 mi WNW 3.5 mph - N/A   Scattered Clouds
11:53 AM 76.3 °F 60.3 °F 57% 29.94 in 10.0 mi WSW 5.8 mph - N/A   Scattered Clouds
12:14 PM 77.0 °F 57.7 °F 51% 29.95 in 10.0 mi West 9.2 mph - N/A   Clear
12:34 PM 77.4 °F 60.1 °F 55% 29.95 in 10.0 mi NW 5.8 mph - N/A   Clear
12:53 PM 75.7 °F 59.0 °F 56% 29.92 in 10.0 mi Calm Calm - N/A   Scattered Clouds
1:14 PM 76.1 °F 59.4 °F 56% 29.92 in 10.0 mi Calm Calm - N/A   Mostly Cloudy
1:34 PM 77.0 °F 61.0 °F 58% 29.92 in 10.0 mi NW 4.6 mph - N/A   Scattered Clouds
1:53 PM 76.3 °F 60.8 °F 59% 29.92 in 10.0 mi NW 3.5 mph - N/A   Clear
2:14 PM 75.9 °F 60.4 °F 59% 29.89 in 10.0 mi Calm Calm - N/A   Scattered Clouds
2:33 PM 75.9 °F 62.1 °F 62% 29.88 in 10.0 mi Calm Calm - N/A   Scattered Clouds
2:53 PM 75.0 °F 63.3 °F 67% 29.85 in 10.0 mi South 4.6 mph - N/A   Clear
3:14 PM 76.3 °F 63.9 °F 65% 29.86 in 10.0 mi SSW 5.8 mph - N/A   Clear
3:34 PM 75.4 °F 63.1 °F 66% 29.88 in 10.0 mi SSW 3.5 mph - N/A   Scattered Clouds
3:53 PM 75.6 °F 63.3 °F 66% 29.89 in 10.0 mi NW 3.5 mph - N/A   Scattered Clouds
4:14 PM 75.2 °F 63.9 °F 68% 29.87 in 10.0 mi Calm Calm - N/A   Mostly Cloudy
4:34 PM 75.9 °F 64.6 °F 68% 29.85 in 10.0 mi South 3.5 mph - N/A   Scattered Clouds
4:53 PM 76.5 °F 64.6 °F 67% 29.87 in 10.0 mi WSW 5.8 mph - N/A   Clear
5:14 PM 76.6 °F 65.1 °F 67% 29.86 in 10.0 mi Calm Calm - N/A   Clear
5:33 PM 76.5 °F 65.1 °F 68% 29.87 in 10.0 mi WSW 3.5 mph - N/A   Clear
5:54 PM 76.1 °F 66.2 °F 71% 29.85 in 10.0 mi Calm Calm - N/A   Scattered Clouds
6:14 PM 76.1 °F 68.0 °F 76% 29.85 in 10.0 mi Calm Calm - N/A   Scattered Clouds
6:33 PM 75.6 °F 66.9 °F 74% 29.83 in 10.0 mi Calm Calm - N/A   Clear
6:53 PM 75.6 °F 67.5 °F 76% 29.83 in 10.0 mi Calm Calm - N/A   Mostly Cloudy
7:14 PM 74.7 °F 68.0 °F 80% 29.84 in 10.0 mi Calm Calm - N/A   Mostly Cloudy
7:33 PM 74.5 °F 69.3 °F 84% 29.85 in 10.0 mi Calm Calm - N/A   Mostly Cloudy
7:54 PM 74.3 °F 68.0 °F 81% 29.84 in 10.0 mi NE 4.6 mph - N/A   Mostly Cloudy
8:14 PM 73.2 °F 68.4 °F 85% 29.83 in 10.0 mi East 4.6 mph - N/A   Scattered Clouds
8:33 PM 72.0 °F 68.5 °F 89% 29.82 in 10.0 mi East 5.8 mph - N/A   Scattered Clouds
8:54 PM 71.6 °F 68.0 °F 88% 29.81 in 10.0 mi East 6.9 mph - N/A   Clear
9:14 PM 70.7 °F 68.7 °F 93% 29.81 in 10.0 mi East 5.8 mph - N/A   Clear
9:33 PM 70.7 °F 69.3 °F 95% 29.81 in 10.0 mi East 5.8 mph - N/A   Scattered Clouds
9:54 PM 70.0 °F 70.2 °F 100% 29.80 in 10.0 mi East 5.8 mph - N/A   Mostly Cloudy
10:14 PM 70.0 °F 70.2 °F 100% 29.81 in 10.0 mi ESE 5.8 mph - N/A   Scattered Clouds
10:33 PM 70.0 °F 70.2 °F 100% 29.79 in 10.0 mi East 6.9 mph - N/A   Clear
10:54 PM 70.0 °F 70.2 °F 100% 29.78 in 10.0 mi SE 4.6 mph - N/A   Clear
11:14 PM 70.0 °F 70.2 °F 100% 29.77 in 7.0 mi East 5.8 mph - N/A   Mostly Cloudy
11:33 PM 70.2 °F 70.3 °F 100% 29.74 in 10.0 mi ESE 5.8 mph - N/A   Mostly Cloudy
11:54 PM 70.7 °F 70.9 °F 100% 29.71 in 10.0 mi ESE 3.5 mph - N/A   Mostly Cloudy